Location: Newark
(44.8699°N, 13.8438°E)
Time: 10:44:45
(UTC+00:00)

Envisat - Visible Passes

Search period start: 16 September 2019 00:00
Search period end: 26 September 2019 00:00
Orbit: 764 x 766 km, 98.1° (Epoch: 16 September)

Date Brightness Start Highest point End Pass type
(mag) Time Alt. Az. Time Alt. Az. Time Alt. Az.
16 Sep 5.9 18:34:42 10° SW 18:37:54 17° W 18:41:06 10° NW visible
17 Sep 4.8 17:56:11 10° SSW 18:00:47 35° W 18:05:27 10° NNW visible
19 Sep 5.7 18:22:45 10° SW 18:26:30 21° W 18:30:19 10° NW visible
20 Sep 4.4 17:44:39 10° S 17:49:28 44° W 17:54:20 10° NNW visible
21 Sep 6.2 18:50:29 10° WSW 18:52:21 12° W 18:54:13 10° WNW visible
22 Sep 5.4 18:10:57 10° SSW 18:15:09 26° W 18:19:23 10° NW visible
23 Sep 3.9 17:33:12 10° S 17:38:10 55° W 17:43:11 10° NNW visible
24 Sep 6.0 18:38:02 10° SW 18:40:56 15° W 18:43:51 10° NW visible
25 Sep 5.0 17:59:17 10° SSW 18:03:49 32° W 18:08:22 10° NNW visible
